Weather observations for the past three days for
Rogers City, Presque Isle County Airport
Imperial (Metric)
Date Time (edt) Wind (mph) Vis. (mi.) Weather Sky Cond. Temperature (ºF) Relative Humidity Wind Chill (°F) Heat Index (°F) Pressure Precipitation (in)
Air Dwpt 6 hour altimeter (in) sea level (mb) 1 hr 3 hr 6 hr
Max. Min.
01 21:35 S 7 10.00 A Few Clouds FEW046 71.6 69.8 94% 29.88 0.0
01 21:15 S 7 10.00 Fair CLR 71.6 69.8 94% 29.88 0.0
01 20:55 SE 8 10.00 Fair CLR 73.4 69.8 89% 29.87 0.0
01 20:35 S 7 10.00 Fair CLR 73.4 69.8 89% 29.88 0.0
01 20:15 S 8 10.00 Fair CLR 75.2 69.8 83% 75 29.88 0.0
01 19:55 SE 6 10.00 Fair CLR 75.2 69.8 77.2 67.6 83% 75 29.88 0.0
01 19:35 SE 7 8.00 Fair CLR 77 69.8 79% 79 29.88 0.0
01 19:15 E 7 10.00 Fair CLR 77 69.8 79% 79 29.88 0.0
01 18:55 E 5 10.00 Fair CLR 75.2 69.8 83% 75 29.89 0.0
01 18:35 E 2 10.00 Fair CLR 73.4 68 83% 29.9 0.0
01 18:15 E 2 10.00 Fair CLR 73.4 68 83% 29.9 0.0
01 17:55 NE 5 10.00 Fair CLR 73.4 68 83% 29.9 0.0
01 17:35 E 5 10.00 Fair CLR 73.4 68 83% 29.9 0.0
01 17:15 NE 3 10.00 Fair CLR 73.4 68 83% 29.91 0.0
01 16:55 Vrbl 3 10.00 Fair CLR 73.4 68 83% 29.91 0.0
01 16:35 NE 5 10.00 A Few Clouds FEW003 69.8 66.2 88% 29.91 0.0
01 16:15 E 6 5.00 Fog/Mist BKN003 69.8 66.2 88% 29.93 0.0
01 15:55 NE 6 1.75 Fog/Mist OVC003 69.8 66.2 88% 29.93 0.0
01 15:35 NE 7 4.00 Fog/Mist BKN003 69.8 66.2 88% 29.93 0.0
01 15:15 Vrbl 5 5.00 Fog/Mist BKN003 69.8 66.2 88% 29.94 0.0
01 14:55 Vrbl 3 4.00 Fog/Mist OVC001 68 66.2 94% 29.94 0.0
01 14:35 NE 5 1.75 Fog/Mist OVC001 69.8 66.2 88% 29.94 0.0
01 14:15 N 8 1.50 Fog/Mist OVC001 68 66.2 94% 29.94 0.0
01 13:55 NE 7 3.00 Fog/Mist SCT001 BKN028 69.8 68 77.2 64.8 94% 29.94 0.0
01 13:35 N 7 10.00 Partly Cloudy SCT024 71.6 68 88% 29.93 0.0
01 13:15 N 7 10.00 Partly Cloudy SCT022 75.2 68 78% 76 29.93 0.0
01 12:55 Vrbl 2 6.00 Fair with Haze CLR 75.2 69.8 83% 75 29.93 0.0
01 12:35 NE 5 10.00 Fair CLR 73.4 68 83% 29.94 0.0
01 12:15 Vrbl 3 6.00 A Few Clouds with Haze FEW003 FEW006 73.4 68 83% 29.94 0.0
01 11:55 Vrbl 3 8.00 Mostly Cloudy BKN003 69.8 66.2 88% 29.95 0.0
01 11:35 Vrbl 2 7.00 Fog/Mist OVC003 68 66.2 94% 29.96 0.0
01 11:15 N 5 1.00 Fog/Mist OVC003 66.2 66.2 100% 29.96 0.0
01 10:55 NE 3 2.50 Fog/Mist OVC003 66.2 66.2 100% 29.95 0.0
01 10:35 N 5 4.00 Fog/Mist OVC003 66.2 66.2 100% 29.95 0.0
01 10:15 Vrbl 2 9.00 Overcast OVC003 68 66.2 94% 29.95 0.0
01 09:55 Calm 10.00 Overcast OVC003 68 66.2 94% 29.95 0.0
01 09:35 Vrbl 2 4.00 Fog/Mist OVC001 66.2 66.2 100% 29.94 0.0
01 09:15 Vrbl 2 5.00 Fog/Mist OVC001 66.2 66.2 100% 29.94 0.0
01 08:55 W 1 2.00 Fog/Mist OVC001 66.2 66.2 100% 29.94 0.0
01 08:35 W 2 0.50 Fog VV005 66.2 66.2 100% 29.93 0.0
01 08:15 NW 2 0.15 Fog VV000 64.4 64.4 100% 29.93 0.0
01 07:55 NW 3 0.15 Fog VV000 64.4 64.4 70.9 64.4 100% 29.93 0.0
01 07:35 NW 3 0.15 Fog VV000 64.4 64.4 100% 29.93 0.0
01 07:15 NW 3 0.15 Fog VV000 64.4 64.4 100% 29.93 0.0
01 06:55 Vrbl 2 0.15 Fog VV000 64.4 64.4 100% 29.92 0.0
01 06:35 NW 6 0.50 Fog VV005 64.4 64.4 100% 29.92 0.0
01 06:15 NW 5 0.75 Fog/Mist BKN001 64.4 64.4 100% 29.92 0.0
01 05:55 NW 6 1.50 Fog/Mist BKN001 64.4 64.4 100% 29.92 0.0
01 05:35 NW 8 1.00 Fog/Mist OVC001 66.2 64.4 94% 29.91 0.0
01 05:15 NW 8 8.00 Overcast OVC001 66.2 66.2 100% 29.91 0.0
01 04:55 NW 8 1.50 Fog/Mist BKN001 66.2 66.2 100% 29.9 0.0
01 04:35 NW 9 1.50 Fog/Mist OVC003 68 66.2 94% 29.9 0.0
01 04:15 W 7 6.00 Fog/Mist OVC003 68 68 100% 29.89 0.0
01 03:55 NW 5 7.00 Partly Cloudy SCT005 68 68 100% 29.89 0.0
01 03:35 W 5 9.00 Fair CLR 69.8 68 94% 29.88 0.0
01 03:15 W 6 10.00 Fair CLR 69.8 68 94% 29.88 0.0
01 02:55 W 3 9.00 Fair CLR 68 68 100% 29.87 0.0
01 02:35 W 3 5.00 Fog/Mist CLR 64.4 64.4 100% 29.88 0.0
01 02:15 N 1 6.00 Fog/Mist CLR 66.2 64.4 94% 29.87 0.0
01 01:55 N 2 10.00 Fair CLR 69.8 68 74.8 66.9 94% 29.87 0.0
01 01:35 W 5 10.00 Fair CLR 69.8 68 94% 29.88 0.0
01 01:15 Calm 10.00 Partly Cloudy SCT029 68 66.2 94% 29.88 0.0
01 00:55 Vrbl 2 10.00 Overcast OVC029 69.8 68 94% 29.88 0.0
01 00:35 E 2 10.00 Overcast OVC033 69.8 68 94% 29.88 0.0
01 00:15 NW 2 10.00 Overcast OVC035 73.4 69.8 89% 29.88 0.0
31 23:55 W 6 10.00 Mostly Cloudy BKN035 BKN050 71.6 69.8 94% 29.87 0.0
31 23:35 SW 6 10.00 Partly Cloudy FEW035 SCT050 71.6 69.8 94% 29.87 0.0
31 23:15 S 6 10.00 Mostly Cloudy BKN060 71.6 69.8 94% 29.87 0.0
31 22:55 S 8 10.00 Mostly Cloudy BKN060 73.4 69.8 89% 29.88 0.0
31 22:35 S 8 10.00 Fair CLR 73.4 69.8 89% 29.87 0.0
31 22:15 S 7 10.00 Partly Cloudy SCT039 SCT065 73.4 69.8 89% 29.87 0.0
31 21:55 S 7 10.00 Overcast BKN039 OVC048 73.4 71.6 94% 29.87 0.0
31 21:35 S 8 10.00 Overcast BKN043 BKN048 OVC060 75.2 71.6 89% 75 29.88 0.0
31 21:15 S 12 10.00 Overcast BKN045 OVC060 75.2 71.6 89% 75 29.87 0.0
31 20:55 S 10 10.00 Overcast BKN041 OVC048 75.2 71.6 89% 75 29.86 0.0
31 20:35 S 7 10.00 Overcast BKN043 OVC050 75.2 69.8 83% 75 29.86 0.0
31 20:15 S 6 10.00 Overcast OVC050 73.4 69.8 89% 29.86 0.0
31 19:55 SE 6 10.00 Overcast OVC050 73.4 69.8 81.7 71.2 89% 29.86 0.0
31 19:35 SE 7 10.00 Overcast OVC050 75.2 69.8 83% 75 29.86 0.0
31 19:15 SE 5 10.00 Overcast OVC050 75.2 69.8 83% 75 29.86 0.0
31 18:55 SE 7 10.00 Overcast OVC050 75.2 69.8 83% 75 29.86 0.0
31 18:35 SE 8 10.00 Overcast OVC050 77 71.6 83% 78 29.87 0.0
31 18:15 SE 7 10.00 Overcast OVC050 78.8 71.6 79% 82 29.86 0.0
31 17:55 Vrbl 6 10.00 Overcast FEW026 SCT037 OVC050 77 71.6 83% 78 29.87 0.0
31 17:35 SE 6 10.00 Overcast BKN038 BKN045 OVC050 78.8 71.6 79% 82 29.87 0.0
31 17:15 E 3 10.00 Overcast SCT034 OVC043 77 71.6 83% 78 29.87 0.0
31 16:55 Vrbl 1 10.00 Overcast BKN044 OVC050 73.4 68 83% 29.87 0.0
31 16:35 NE 3 9.00 Overcast BKN038 BKN043 OVC050 71.6 68 88% 29.88 0.0
31 16:15 Vrbl 3 10.00 Overcast SCT034 BKN040 OVC080 73.4 69.8 89% 29.89 0.0
31 15:55 Vrbl 3 10.00 Overcast BKN023 BKN036 OVC080 73.4 69.8 89% 29.89 0.0
31 15:35 E 7 10.00 Overcast BKN023 BKN036 OVC085 75.2 69.8 83% 75 29.89 0.0
31 15:15 NE 8 10.00 Mostly Cloudy SCT023 SCT027 BKN095 78.8 69.8 74% 81 29.89 0.0
31 14:55 S 5 10.00 Mostly Cloudy FEW070 BKN095 80.6 71.6 74% 85 29.9 0.0
31 14:35 S 5 10.00 Mostly Cloudy FEW070 BKN095 78.8 69.8 74% 81 29.91 0.0
31 14:15 Vrbl 5 10.00 A Few Clouds FEW100 78.8 69.8 74% 81 29.91 0.0
31 13:55 S 7 10.00 A Few Clouds FEW018 78.8 69.8 80.2 66 74% 81 29.91 0.0
31 13:35 S 7 10.00 Mostly Cloudy BKN018 78.8 71.6 79% 82 29.93 0.0
31 13:15 Vrbl 6 10.00 Mostly Cloudy FEW012 BKN018 78.8 71.6 79% 82 29.94 0.0
31 12:55 Vrbl 5 10.00 Partly Cloudy SCT009 77 71.6 83% 78 29.94 0.0
31 12:35 S 7 10.00 Mostly Cloudy BKN007 BKN065 73.4 71.6 94% 29.94 0.0
31 12:15 SE 5 10.00 Overcast OVC005 71.6 69.8 94% 29.95 0.0
31 11:55 SE 6 8.00 Light Rain OVC005 69.8 69.8 100% 29.95 0.0 0.01
31 11:35 E 5 7.00 Fog/Mist OVC005 69.8 68 94% 29.97 0.0
31 11:15 SE 3 5.00 Light Rain Fog/Mist OVC005 69.8 68 94% 29.97 0.0
31 10:55 Vrbl 2 4.00 Light Rain Fog/Mist BKN005 BKN016 OVC065 68 68 100% 29.97 0.0
31 10:35 S 7 4.00 Fog/Mist BKN016 BKN046 OVC095 68 68 100% 29.97 0.0
31 10:15 S 5 4.00 Light Rain Fog/Mist FEW004 OVC014 68 68 100% 29.97 0.0
31 09:55 SW 6 3.00 Light Rain Fog/Mist BKN004 OVC012 68 66.2 94% 29.98 0.0 0.01
31 09:35 S 3 2.50 Light Rain Fog/Mist OVC004 68 66.2 94% 29.97 0.0
31 09:15 S 3 2.50 Fog/Mist OVC004 68 66.2 94% 29.96 0.0
31 08:55 S 5 2.50 Fog/Mist OVC002 68 66.2 94% 29.96 0.0
31 08:35 S 5 2.50 Fog/Mist OVC002 66.2 66.2 100% 29.95 0.0
31 07:55 SE 5 1.00 Fog/Mist OVC002 66.2 66.2 66.4 65.8 100% 29.95 0.0
31 07:35 SE 6 0.50 Fog BKN002 66.2 66.2 100% 29.95 0.0
31 06:55 SE 2 1.25 Fog/Mist OVC002 66.2 66.2 100% 29.96 0.0
31 06:35 E 3 2.00 Fog/Mist OVC002 66.2 66.2 100% 29.97 0.0
31 06:15 SE 3 2.00 Fog/Mist OVC002 66.2 66.2 100% 29.98 0.0
31 05:55 SE 5 3.00 Fog/Mist OVC002 66.2 66.2 100% 29.98 0.0
31 05:35 SE 3 3.00 Fog/Mist OVC002 66.2 66.2 100% 29.98 0.0
31 05:15 SE 3 3.00 Fog/Mist OVC002 66.2 66.2 100% 29.99 0.0
31 04:55 S 3 4.00 Fog/Mist OVC002 66.2 66.2 100% 30 0.0
31 04:35 SE 3 4.00 Fog/Mist OVC002 66.2 66.2 100% 29.99 0.0
31 04:15 SE 3 4.00 Fog/Mist OVC002 66.2 66.2 100% 29.98 0.0
31 03:55 SE 3 3.00 Fog/Mist OVC002 66.2 66.2 100% 29.98 0.0
31 03:35 E 5 4.00 Fog/Mist OVC002 66.2 66.2 100% 29.97 0.0
31 03:15 E 5 3.00 Fog/Mist OVC002 66.2 66.2 100% 29.97 0.0
31 02:55 E 6 6.00 Fog/Mist OVC002 66.2 66.2 100% 29.98 0.0
31 02:15 SE 5 5.00 Fog/Mist OVC002 66.2 66.2 100% 29.99 0.0
31 01:55 E 6 4.00 Fog/Mist OVC002 66.2 66.2 67.3 65.7 100% 29.99 0.0
31 01:35 SE 5 4.00 Fog/Mist OVC002 66.2 66.2 100% 29.99 0.0
31 01:15 E 5 4.00 Fog/Mist OVC002 66.2 66.2 100% 29.99 0.0
31 00:55 SE 5 6.00 Fog/Mist OVC004 66.2 66.2 100% 30 0.0
31 00:35 E 3 5.00 Fog/Mist OVC004 66.2 66.2 100% 30 0.0
31 00:15 E 5 5.00 Fog/Mist OVC004 66.2 66.2 100% 29.99 0.0
30 23:55 E 3 6.00 Fog/Mist BKN004 OVC016 66.2 66.2 100% 30 0.0
30 23:35 E 3 7.00 Fog/Mist SCT004 OVC016 66.2 66.2 100% 30.01 0.0
30 23:15 SE 5 7.00 Overcast BKN004 BKN016 OVC021 66.2 66.2 100% 30 0.0
30 22:55 SE 5 7.00 Fog/Mist SCT004 OVC016 66.2 66.2 100% 30 0.0
30 22:35 E 3 8.00 Overcast FEW004 OVC014 66.2 66.2 100% 30 0.0
30 22:15 E 2 7.00 Fog/Mist FEW003 OVC012 66.2 66.2 100% 30 0.0
30 21:55 NE 3 8.00 Light Rain FEW003 OVC012 66.2 66.2 100% 30 0.0
30 21:35 E 3 10.00 Overcast BKN012 OVC020 66.2 66.2 100% 30 0.0
30 21:15 E 5 9.00 Overcast OVC012 66.2 66.2 100% 29.99 0.0
30 20:55 E 2 8.00 Overcast SCT002 OVC012 66.2 66.2 100% 29.99 0.0
30 20:35 E 6 5.00 Fog/Mist SCT002 OVC014 66.2 64.4 94% 29.99 0.0
30 20:15 E 5 9.00 Overcast OVC016 66.2 64.4 94% 29.98 0.0
30 19:55 E 5 10.00 Overcast FEW010 OVC016 66.2 66.2 70.9 67.3 100% 29.97 0.0
30 19:35 E 3 10.00 Overcast OVC012 68 66.2 94% 29.98 0.0
30 19:15 NE 5 10.00 Overcast OVC016 68 66.2 94% 29.99 0.0
30 18:35 E 5 10.00 Overcast OVC018 68 66.2 94% 30 0.0
30 18:15 E 5 10.00 Overcast OVC018 68 66.2 94% 30 0.0
30 17:55 E 3 9.00 Overcast OVC018 68 66.2 94% 30 0.0
30 17:35 E 6 10.00 Overcast OVC018 68 66.2 94% 29.99 0.0
30 17:15 NE 3 10.00 Overcast OVC020 68 66.2 94% 29.99 0.0
30 16:55 E 5 10.00 Overcast OVC021 69.8 66.2 88% 29.99 0.0
30 16:35 NE 3 10.00 Overcast FEW010 OVC019 69.8 66.2 88% 29.99 0.0
30 16:15 Vrbl 1 10.00 Overcast FEW010 OVC019 69.8 66.2 88% 29.99 0.0
30 15:55 Vrbl 2 10.00 Overcast FEW010 OVC019 69.8 66.2 88% 29.98 0.0
30 15:35 E 5 10.00 Overcast SCT010 OVC019 69.8 66.2 88% 29.99 0.0
30 15:15 SE 5 10.00 Overcast BKN010 OVC014 69.8 66.2 88% 29.99 0.0
30 14:55 SE 5 10.00 Overcast BKN012 OVC023 69.8 66.2 88% 29.99 0.0
30 14:35 S 3 10.00 Overcast OVC012 68 66.2 94% 29.99 0.0
30 14:15 S 3 10.00 Overcast FEW010 BKN015 OVC022 68 64.4 88% 30 0.0
30 13:55 SE 5 10.00 Overcast SCT012 OVC018 68 66.2 69.6 63.3 94% 29.99 0.0
30 13:35 S 5 10.00 Overcast OVC010 68 64.4 88% 30 0.0
30 13:15 S 6 10.00 Overcast OVC008 68 64.4 88% 29.99 0.0
30 12:55 S 6 10.00 Overcast BKN008 OVC012 68 64.4 88% 29.99 0.0
30 12:35 S 6 9.00 Overcast BKN008 OVC025 66.2 64.4 94% 30 0.0
30 12:15 S 7 10.00 Overcast SCT010 OVC025 66.2 64.4 94% 30.01 0.0
30 11:55 SE 7 10.00 Overcast SCT013 SCT018 OVC023 66.2 64.4 94% 30.01 0.0
30 11:35 SE 6 10.00 Overcast FEW010 SCT018 OVC023 66.2 64.4 94% 30.01 0.0
30 11:15 S 5 10.00 Overcast SCT009 BKN016 OVC024 66.2 64.4 94% 30.01 0.0
30 10:55 S 7 10.00 Overcast SCT007 BKN014 OVC024 64.4 64.4 100% 30.01 0.0
30 10:35 S 9 10.00 Overcast SCT010 SCT015 OVC024 64.4 64.4 100% 30 0.0
30 10:15 S 8 6.00 Fog/Mist SCT008 BKN014 OVC026 64.4 62.6 94% 30.01 0.0
30 09:55 S 9 7.00 Light Drizzle SCT007 BKN026 OVC031 64.4 62.6 94% 30.01 0.0 0.01
30 09:35 SE 8 6.00 Light Drizzle Fog/Mist SCT007 SCT011 OVC031 64.4 62.6 94% 30.01 0.0
30 09:15 SE 9 5.00 Light Drizzle Fog/Mist SCT031 BKN040 OVC049 64.4 62.6 94% 30.02 0.0
30 08:55 SE 8 10.00 Overcast FEW042 BKN048 OVC050 64.4 62.6 94% 30.02 0.0
30 08:35 SE 10 10.00 Light Drizzle FEW043 BKN049 OVC060 62.6 62.6 100% 30.02 0.0
30 08:15 S 8 9.00 Light Drizzle BKN033 BKN042 OVC060 62.6 62.6 100% 30.02 0.0
30 07:55 S 9 10.00 Overcast BKN035 OVC044 62.6 62.6 64.9 63 100% 30.02 0.0 0.01
30 07:35 SE 7 10.00 Light Rain BKN040 OVC046 62.6 62.6 100% 30.01 0.0
30 07:15 S 6 2.50 Light Rain Fog/Mist SCT036 OVC046 62.6 62.6 100% 30.02 0.0
30 06:55 S 5 10.00 Overcast BKN046 OVC050 64.4 60.8 88% 30.02 0.0
30 06:35 S 3 10.00 Overcast OVC060 64.4 62.6 94% 30.01 0.0
30 06:15 S 7 10.00 Overcast OVC060 64.4 62.6 94% 30 0.0
30 05:55 S 6 10.00 Overcast BKN060 OVC070 64.4 62.6 94% 30 0.0
30 05:35 S 9 9.00 Overcast BKN080 OVC090 64.4 62.6 94% 30 0.0
30 05:15 S 7 10.00 Overcast FEW004 OVC080 64.4 62.6 94% 30.01 0.0
30 04:55 S 7 10.00 Overcast SCT050 SCT070 OVC080 64.4 62.6 94% 30.02 0.0 0.01
30 04:35 S 5 10.00 Overcast SCT050 SCT070 OVC080 64.4 62.6 94% 30.03 0.0
30 04:15 S 5 10.00 Overcast OVC070 64.4 62.6 94% 30.03 0.0
30 03:55 S 6 10.00 Overcast FEW050 OVC070 64.4 62.6 94% 30.03 0.0 0.02
30 03:35 S 5 10.00 Light Rain OVC070 64.4 62.6 94% 30.04 0.0
30 03:15 S 8 8.00 Light Rain BKN060 OVC070 64.4 62.6 94% 30.04 0.0
30 02:55 SW 8 6.00 Light Rain Fog/Mist FEW048 BKN070 OVC075 64.4 62.6 94% 30.06 0.0 0.04
30 02:35 SW 10 8.00 Light Rain SCT060 BKN070 OVC090 64.4 62.6 94% 30.06 0.0
30 02:15 SW 9 9.00 Light Rain FEW050 BKN090 BKN110 64.4 62.6 94% 30.07 0.0
30 01:55 SW 7 10.00 Light Rain BKN050 BKN110 64.4 62.6 71.1 64.9 94% 30.07 0.0
30 01:35 SW 6 10.00 Overcast BKN050 OVC065 64.4 64.4 100% 30.07 0.0
30 01:15 S 5 9.00 Light Rain SCT055 BKN065 OVC090 64.4 64.4 100% 30.07 0.0
30 00:55 SW 5 9.00 Light Rain SCT065 SCT075 OVC090 64.4 62.6 94% 30.07 0.0 0.01
30 00:35 SW 7 10.00 Light Rain BKN065 BKN075 OVC090 66.2 62.6 88% 30.06 0.0
30 00:15 SW 9 9.00 Light Rain FEW060 BKN090 BKN120 66.2 62.6 88% 30.06 0.0
29 23:55 SW 7 10.00 Mostly Cloudy SCT060 BKN090 66.2 62.6 88% 30.06 0.0
29 23:35 SW 6 10.00 Light Rain OVC060 68 64.4 88% 30.06 0.0
29 23:15 SW 5 10.00 Overcast OVC060 68 62.6 83% 30.06 0.0
29 22:55 SW 6 10.00 Overcast OVC060 68 62.6 83% 30.06 0.0
29 22:35 SW 7 10.00 Overcast OVC060 68 62.6 83% 30.06 0.0
29 22:15 SW 7 10.00 Overcast OVC060 68 62.6 83% 30.06 0.0
29 21:55 SW 5 10.00 Overcast OVC070 68 62.6 83% 30.05 0.0
Date Time (edt) Wind (mph) Vis. (mi.) Weather Sky Cond. Air Dwpt Max. Min. Relative Humidity Wind Chill (°F) Heat Index (°F) altimeter (in) sea level (mb) 1 hr 3 hr 6 hr
6 hour
Temperature (ºF) Pressure Precipitation (in)